TimeEST,TemperatureF,Dew PointF,Humidity,Sea Level PressureIn,VisibilityMPH,Wind Direction,Wind SpeedMPH,Gust SpeedMPH,PrecipitationIn,Events,Conditions,WindDirDegrees,DateUTC
12:55 AM,38.5,31.8,77,30.27,10.0,North,3.5,-,N/A,,Overcast,350,2012-11-28 05:55:00
1:55 AM,38.5,32.4,79,30.28,10.0,WNW,6.9,-,N/A,,Overcast,300,2012-11-28 06:55:00
2:55 AM,38.5,32.0,78,30.29,10.0,NNW,3.5,-,N/A,,Overcast,340,2012-11-28 07:55:00
3:55 AM,38.5,31.8,77,30.29,10.0,WNW,4.6,-,N/A,,Overcast,300,2012-11-28 08:55:00
4:55 AM,38.1,30.7,75,30.29,10.0,NW,3.5,-,N/A,,Overcast,320,2012-11-28 09:55:00
5:55 AM,38.3,26.2,62,30.31,10.0,NW,6.9,-,N/A,,Overcast,310,2012-11-28 10:55:00
6:55 AM,36.9,25.2,63,30.32,10.0,Calm,Calm,-,N/A,,Mostly Cloudy,0,2012-11-28 11:55:00
7:55 AM,37.8,23.7,57,30.32,10.0,Calm,Calm,-,N/A,,Mostly Cloudy,0,2012-11-28 12:55:00
8:55 AM,39.6,23.9,54,30.34,10.0,Calm,Calm,-,N/A,,Overcast,0,2012-11-28 13:55:00
9:55 AM,41.4,24.1,50,30.35,10.0,Calm,Calm,-,N/A,,Overcast,0,2012-11-28 14:55:00
10:55 AM,43.9,24.3,46,30.33,10.0,Variable,5.8,-,N/A,,Clear,0,2012-11-28 15:55:00
11:55 AM,45.7,24.1,43,30.31,10.0,NW,11.5,-,N/A,,Clear,310,2012-11-28 16:55:00
12:55 PM,47.1,24.4,41,30.29,10.0,NW,8.1,-,N/A,,Partly Cloudy,320,2012-11-28 17:55:00
1:55 PM,48.4,23.4,37,30.28,10.0,WNW,8.1,-,N/A,,Partly Cloudy,300,2012-11-28 18:55:00
2:55 PM,48.9,19.9,32,30.27,10.0,WNW,12.7,-,N/A,,Clear,290,2012-11-28 19:55:00
3:55 PM,47.8,19.8,33,30.27,10.0,WNW,9.2,-,N/A,,Clear,300,2012-11-28 20:55:00
4:55 PM,44.6,19.6,37,30.30,10.0,WNW,9.2,-,N/A,,Clear,300,2012-11-28 21:55:00
5:55 PM,42.3,19.0,39,30.32,10.0,WNW,5.8,-,N/A,,Clear,300,2012-11-28 22:55:00
6:55 PM,34.7,22.8,62,30.35,10.0,Calm,Calm,-,N/A,,Clear,0,2012-11-28 23:55:00
7:55 PM,31.8,22.1,67,30.36,10.0,North,3.5,-,N/A,,Clear,10,2012-11-29 00:55:00
8:55 PM,31.6,22.1,68,30.38,10.0,NNW,3.5,-,N/A,,Clear,330,2012-11-29 01:55:00
9:55 PM,28.4,21.6,76,30.40,10.0,Calm,Calm,-,N/A,,Clear,0,2012-11-29 02:55:00
10:55 PM,28.2,22.1,78,30.39,10.0,Calm,Calm,-,N/A,,Clear,0,2012-11-29 03:55:00
11:55 PM,27.0,22.8,84,30.41,10.0,Calm,Calm,-,N/A,,Clear,0,2012-11-29 04:55:00